Вернуться в каталог

IRIDIUM 63

АктивенСвязьPO
NORAD 25286·PAYLOAD·🇺🇸 United States

Запущен Apr 7, 1998 с Baikonur Cosmodrome

Loading…

Ближайшие Пролёты (ближайшие 24 часа)

TLE

СвежийSource: Space-Track

Эпоха: Sep 13, 2026, 22:00 UTC

1 25286U 98021B   26256.91725861  .00000237  00000-0  73463-4 0  9992
2 25286  86.3925 251.7061 0002069  93.4043 266.7391 14.36928205488992

Отслеживайте IRIDIUM 63 в реальном времени с AllMySat

Download on the App Store